When you browse on this site, cookies collect data to enhance your experience and personalize the content and advertising you see.
Visit our Privacy Policy to learn more. By continuing to use the site, you agree to this use of cookies and data.
  • In Austria
  • List of Countries
  • For 7 days
  • Water Temperature
  • Weather Map
  • News
  • Weather Widgets
  • user-avatar
    Login

    Hourly Weather Gorkovskoe

    Today, 6 June, Saturday

    Time Temperature Precipitation Wind Pressure Humidity
    00:00 +15°C° 0 mm 5 mps 748 mmHg 41%
    01:00 +15°C° 0 mm 5 mps 748 mmHg 41%
    02:00 +14°C° 0 mm 5 mps 748 mmHg 43%
    03:00 +13°C° 0 mm 4 mps 748 mmHg 46%
    04:00 +13°C° 0 mm 4 mps 748 mmHg 49%
    05:00 +14°C° 0 mm 5 mps 748 mmHg 46%
    06:00 +15°C° 0 mm 6 mps 748 mmHg 43%
    07:00 +17°C° 0 mm 6 mps 748 mmHg 40%
    08:00 +19°C° 0 mm 6 mps 748 mmHg 37%
    09:00 +21°C° 0 mm 6 mps 748 mmHg 35%
    10:00 +22°C° 0 mm 6 mps 748 mmHg 32%
    11:00 +23°C° 0 mm 6 mps 748 mmHg 30%
    12:00 +24°C° 0 mm 6 mps 748 mmHg 28%
    13:00 +26°C° 0 mm 6 mps 748 mmHg 27%
    14:00 +26°C° 0 mm 5 mps 748 mmHg 26%
    15:00 +27°C° 0 mm 5 mps 748 mmHg 25%
    16:00 +27°C° 0 mm 5 mps 748 mmHg 25%
    17:00 +25°C° 0 mm 5 mps 747 mmHg 30%
    18:00 +23°C° 0 mm 5 mps 747 mmHg 36%
    19:00 +22°C° 0 mm 5 mps 747 mmHg 42%
    20:00 +20°C° 0 mm 4 mps 747 mmHg 49%
    21:00 +18°C° 0 mm 3 mps 747 mmHg 56%
    22:00 +16°C° 0 mm 2 mps 748 mmHg 64%
    23:00 +16°C° 0 mm 2 mps 747 mmHg 63%

    Tomorrow, 7 June, Sunday

    Time Temperature Precipitation Wind Pressure Humidity
    00:00 +16°C° 0 mm 3 mps 747 mmHg 62%
    01:00 +16°C° 0 mm 3 mps 747 mmHg 61%
    02:00 +16°C° 0 mm 3 mps 748 mmHg 60%
    03:00 +15°C° 0 mm 4 mps 748 mmHg 59%
    04:00 +15°C° 0 mm 4 mps 748 mmHg 57%
    05:00 +17°C° 0 mm 4 mps 748 mmHg 56%
    06:00 +17°C° 0 mm 5 mps 748 mmHg 54%
    07:00 +19°C° 0 mm 5 mps 748 mmHg 53%
    08:00 +21°C° 0 mm 5 mps 748 mmHg 45%
    09:00 +22°C° 0 mm 5 mps 748 mmHg 38%
    10:00 +25°C° 0 mm 4 mps 748 mmHg 30%
    11:00 +26°C° 0 mm 4 mps 748 mmHg 28%
    12:00 +26°C° 0 mm 4 mps 748 mmHg 27%
    13:00 +27°C° 0 mm 3 mps 748 mmHg 25%
    14:00 +27°C° 0 mm 3 mps 747 mmHg 25%
    15:00 +27°C° 0 mm 3 mps 747 mmHg 24%
    16:00 +28°C° 0 mm 2 mps 747 mmHg 23%
    17:00 +27°C° 0 mm 2 mps 747 mmHg 27%
    18:00 +26°C° 0 mm 2 mps 747 mmHg 31%
    19:00 +25°C° 0 mm 2 mps 747 mmHg 35%
    20:00 +24°C° 0 mm 3 mps 747 mmHg 36%
    21:00 +21°C° 0 mm 4 mps 747 mmHg 37%
    22:00 +20°C° 0 mm 4 mps 747 mmHg 39%
    23:00 +19°C° 0 mm 4 mps 747 mmHg 41%

    Day after tomorrow, 8 June, Monday

    Time Temperature Precipitation Wind Pressure Humidity
    00:00 +18°C° 0 mm 4 mps 747 mmHg 44%
    01:00 +18°C° 0 mm 3 mps 747 mmHg 47%
    02:00 +17°C° 0 mm 3 mps 747 mmHg 48%
    03:00 +17°C° 0 mm 3 mps 747 mmHg 49%
    04:00 +16°C° 0 mm 3 mps 747 mmHg 50%
    05:00 +18°C° 0 mm 3 mps 747 mmHg 47%
    06:00 +20°C° 0 mm 4 mps 747 mmHg 45%
    07:00 +21°C° 0 mm 4 mps 748 mmHg 43%
    08:00 +23°C° 0 mm 5 mps 748 mmHg 38%
    09:00 +26°C° 0 mm 5 mps 748 mmHg 33%
    10:00 +27°C° 0 mm 5 mps 748 mmHg 28%
    11:00 +27°C° 0 mm 5 mps 748 mmHg 28%
    12:00 +27°C° 0 mm 5 mps 748 mmHg 28%
    13:00 +28°C° 0 mm 5 mps 748 mmHg 28%
    14:00 +28°C° 0 mm 5 mps 748 mmHg 28%
    15:00 +28°C° 0 mm 5 mps 748 mmHg 28%
    16:00 +28°C° 0 mm 5 mps 748 mmHg 28%
    17:00 +27°C° 0 mm 5 mps 748 mmHg 32%
    18:00 +26°C° 0 mm 4 mps 748 mmHg 36%
    19:00 +25°C° 0 mm 3 mps 748 mmHg 40%
    20:00 +24°C° 0 mm 3 mps 748 mmHg 41%
    21:00 +21°C° 0 mm 3 mps 748 mmHg 43%
    22:00 +20°C° 0 mm 3 mps 748 mmHg 45%
    23:00 +19°C° 0 mm 2 mps 748 mmHg 47%

    9 June, Tuesday

    Time Temperature Precipitation Wind Pressure Humidity
    00:00 +18°C° 0 mm 2 mps 749 mmHg 48%
    01:00 +19°C° 0 mm 1 mps 749 mmHg 50%
    02:00 +18°C° 0 mm 2 mps 749 mmHg 50%
    03:00 +17°C° 0 mm 2 mps 749 mmHg 51%
    04:00 +17°C° 0 mm 2 mps 749 mmHg 51%
    05:00 +19°C° 0 mm 2 mps 749 mmHg 49%
    06:00 +20°C° 0 mm 2 mps 750 mmHg 46%
    07:00 +22°C° 0 mm 3 mps 750 mmHg 44%
    08:00 +25°C° 0 mm 3 mps 750 mmHg 39%
    09:00 +27°C° 0 mm 4 mps 750 mmHg 34%
    10:00 +28°C° 0 mm 4 mps 750 mmHg 29%
    11:00 +29°C° 0 mm 4 mps 750 mmHg 28%
    12:00 +30°C° 0 mm 4 mps 750 mmHg 26%
    13:00 +30°C° 0 mm 4 mps 750 mmHg 25%
    14:00 +30°C° 0 mm 4 mps 750 mmHg 24%
    15:00 +31°C° 0 mm 3 mps 749 mmHg 24%
    16:00 +31°C° 0 mm 3 mps 749 mmHg 24%
    17:00 +30°C° 0 mm 3 mps 749 mmHg 28%
    18:00 +29°C° 0 mm 3 mps 749 mmHg 32%
    19:00 +28°C° 0 mm 2 mps 749 mmHg 35%
    20:00 +26°C° 0 mm 2 mps 749 mmHg 37%
    21:00 +24°C° 0 mm 2 mps 749 mmHg 39%
    22:00 +21°C° 0 mm 3 mps 749 mmHg 41%
    23:00 +21°C° 0 mm 2 mps 749 mmHg 42%

    10 June, Wednesday

    Time Temperature Precipitation Wind Pressure Humidity
    00:00 +20°C° 0 mm 2 mps 749 mmHg 43%
    01:00 +19°C° 0 mm 2 mps 750 mmHg 44%
    02:00 +19°C° 0 mm 2 mps 750 mmHg 45%
    03:00 +18°C° 0 mm 2 mps 750 mmHg 46%
    04:00 +18°C° 0 mm 2 mps 750 mmHg 47%
    05:00 +20°C° 0 mm 2 mps 750 mmHg 45%
    06:00 +23°C° 0 mm 2 mps 750 mmHg 43%
    07:00 +24°C° 0 mm 2 mps 750 mmHg 41%
    08:00 +26°C° 0 mm 2 mps 750 mmHg 37%
    09:00 +28°C° 0 mm 2 mps 750 mmHg 33%
    10:00 +29°C° 0 mm 2 mps 750 mmHg 29%
    11:00 +30°C° 0 mm 2 mps 750 mmHg 28%
    12:00 +31°C° 0 mm 2 mps 750 mmHg 26%
    13:00 +31°C° 0 mm 2 mps 750 mmHg 25%
    14:00 +32°C° 0 mm 2 mps 750 mmHg 24%
    15:00 +32°C° 0 mm 2 mps 749 mmHg 24%
    16:00 +32°C° 0 mm 2 mps 749 mmHg 24%
    17:00 +31°C° 0 mm 2 mps 749 mmHg 28%
    18:00 +30°C° 0 mm 3 mps 749 mmHg 33%
    19:00 +29°C° 0 mm 3 mps 749 mmHg 37%
    20:00 +27°C° 0 mm 3 mps 749 mmHg 40%
    21:00 +26°C° 0 mm 3 mps 749 mmHg 44%
    22:00 +24°C° 0 mm 3 mps 749 mmHg 47%
    23:00 +24°C° 0 mm 3 mps 749 mmHg 49%

    11 June, Thursday

    Time Temperature Precipitation Wind Pressure Humidity
    00:00 +22°C° 0 mm 3 mps 749 mmHg 50%
    01:00 +21°C° 0 mm 2 mps 749 mmHg 51%
    02:00 +21°C° 0 mm 2 mps 749 mmHg 54%
    03:00 +20°C° 0 mm 2 mps 749 mmHg 56%
    04:00 +19°C° 0 mm 2 mps 749 mmHg 59%
    05:00 +21°C° 0 mm 2 mps 749 mmHg 55%
    06:00 +24°C° 0 mm 2 mps 749 mmHg 51%
    07:00 +25°C° 0 mm 2 mps 749 mmHg 48%
    08:00 +27°C° 0 mm 3 mps 749 mmHg 43%
    09:00 +29°C° 0 mm 3 mps 749 mmHg 37%
    10:00 +30°C° 0 mm 4 mps 749 mmHg 32%
    11:00 +31°C° 0 mm 3 mps 749 mmHg 30%
    12:00 +31°C° 0 mm 3 mps 749 mmHg 28%
    13:00 +33°C° 0 mm 3 mps 748 mmHg 26%
    14:00 +33°C° 0 mm 3 mps 748 mmHg 26%
    15:00 +33°C° 0 mm 3 mps 748 mmHg 26%
    16:00 +33°C° 0 mm 3 mps 747 mmHg 26%
    17:00 +31°C° 0 mm 3 mps 747 mmHg 31%
    18:00 +30°C° 0 mm 3 mps 747 mmHg 35%
    19:00 +28°C° 0 mm 3 mps 747 mmHg 40%
    20:00 +27°C° 0 mm 3 mps 747 mmHg 42%
    21:00 +26°C° 0 mm 4 mps 747 mmHg 43%
    22:00 +25°C° 0 mm 4 mps 747 mmHg 45%
    23:00 +25°C° 0 mm 4 mps 747 mmHg 45%
    Show more